DELTA 1 DEB, 7176

Orbit data source: Space-Track

DELTA 1 DEB, 7176 is space debris in SSO originally from a launch on Tue, 06 Nov 1973 UTC launched from the Air Force Western Test Range (AFWTR). Debris objects in space refer to the collection of defunct objects orbiting the Earth. Examples of debris include non-operational satellites, rocket bodies, and fragments generated from explosions, collisions, or faulty payload assembly.

Loading next visibility...
Identifier
7176, 1973-086EN
Orbit
SSO
Country
Flag of USUS
Related business
Manufacturer
Unknown
Mission
Spacecraft
Bus & Motor
Unknown
Mass
Unknown
Launch date (UTC)
1973-11-06 (53 years ago)
Launch vehicle
Unknown
Launch site
Air Force Western Test Range (AFWTR)
Object type
Payload
Rocket body
Debris
Shape & HBR
Unknown shape, 0.1 m
Radar Cross Section
Medium (>0.1 m² and <1 m²)

Expand to show TLE details & history
Last TLE update: 1 day ago

TLE from 1 day ago
0 DELTA 1 DEB
1  7176U 73086EN  26254.78709008  .00000066  00000-0  51065-3 0  9995
2  7176 102.2239 191.3388 0175983 195.6007 224.0187 12.75763373458641
Epoch: 2026-09-11T18:53Z
TLE epoch observation values (Epoch: 2026-09-11T18:53:24.582Z)
Latitude
56.29425°
Longitude
-101.67464°
Altitude
1,466.794 km
Speed
7.089 km/s
True Right ascension
11h 29m 55s
True Declination
56° 08' 59"
Sunlit
Object was in daylight at epoch
Visualization orbit readout
Latitude
Unknown
Longitude
Unknown
Altitude
Unknown
Speed
Unknown
Apparent Right ascension
Unknown
Apparent Declination
Unknown
Sunlit
N/A
Visualization observer readout
Local Sidereal Time
22:19:07
Azimuth
Unknown
Elevation
Unknown
Doppler factor
Unknown
Orbital elements
Apogee altitude
1,492.201 km
Perigee altitude
1,219.983 km
Semi-major axis
7,734.229 km
Eccentricity
0.0176
Inclination
102.2239°
RAAN
191.3388°
Arg. of periapsis
195.6007°
True anomaly
222.63934°
Mean anomaly
224.0187°
Eccentric anomaly
223.32684°
Mean motion
3.19093 °/min
Orbital period
112.82 mins
BSTAR
0.00051065
Loading maneuver chart data...
Computing Atmospheric mass density...

Documentation

Showing up to 5 results
|